Content
SEND FEEDBACK

Daily
Averages
Monthly
Summary
United States of America

OAKWOOD, OKLAHOMA


Home > North America > United States > Oklahoma
Elevation: 1860 feet     Latitude: 35 56N     Longitude: 098 42W

WEATHER
 
SELECT A DAY
Number of Records: 280,735;   Date Range: 3/30/01 - 7/27/14
 
SHARE

PRINT THIS DATA

[ ← Previous Day ]
WEATHER ALMANAC - JANUARY 23, 2013
[ Next Day → ]
[ °C ]   °F
Weather ElementAverageHighLow
Temperature44.7 °F67.1 °F (3:55 pm)25.7 °F (7:35 am)
Dewpoint37.1 °F47.1 °F (1:35 pm)25.2 °F (7:15 am)
Humidity77.5 %100 % (7:35 am)46 % (4:15 pm)
Barometer30.17 in30.23 in (10:15 am)30.10 in (3:35 pm)
Wind Speed4.1 mph12.7 mph (11:55 pm)
Weather ElementAverage
Visibility10 mi
Wind DirectionESE (106.9 °)

Weather ElementTotal
Precipitation---
Heating Degree Days18.6 (Base 65)
Averaged from 67 records on January 23, 2013
WEATHER CONDITIONS BREAKOUT
WIND DIRECTION BREAKOUT
WEATHER BY HOUR - JANUARY 23, 2013
[ °C ]   °F
Local TimeTemperatureDewpointHumidityBarometerVisibilityWind DirectionWind SpeedGust SpeedPrecipitationEventsConditions
12:35 AM32.0 °F30.0 °F92 %30.21 in10.0 miNNW (330°)4.6 mphClear
12:55 AM33.3 °F29.7 °F87 %30.21 in10.0 miNorth (350°)5.8 mphClear
1:15 AM33.8 °F30.2 °F87 %30.21 in10.0 miNorth (360°)9.2 mphClear
1:35 AM34.0 °F30.4 °F87 %30.20 in10.0 miCalmClear
1:55 AM31.8 °F28.9 °F89 %30.20 in10.0 miWest (280°)3.5 mphClear
2:15 AM31.3 °F28.4 °F89 %30.20 in10.0 miCalmClear
2:35 AM30.4 °F28.2 °F92 %30.20 in10.0 miCalmClear
3:15 AM30.6 °F28.6 °F92 %30.19 in10.0 miCalmClear
3:35 AM31.1 °F28.6 °F90 %30.18 in10.0 miCalmClear
3:55 AM30.0 °F27.9 °F92 %30.18 in10.0 miCalmClear
4:15 AM30.6 °F27.9 °F90 %30.19 in10.0 miNorth (360°)3.5 mphClear
4:35 AM30.7 °F27.7 °F88 %30.19 in10.0 miCalmClear
5:15 AM27.7 °F26.1 °F94 %30.19 in10.0 miWest (260°)3.5 mphClear
5:35 AM28.2 °F26.8 °F94 %30.19 in10.0 miCalmClear
5:55 AM27.0 °F26.6 °F99 %30.18 in10.0 miCalmClear
6:15 AM27.3 °F26.4 °F96 %30.19 in10.0 miNNW (340°)3.5 mphClear
6:35 AM26.2 °F25.3 °F96 %30.19 in10.0 miCalmClear
6:55 AM27.1 °F26.8 °F99 %30.19 in10.0 miCalmClear
7:15 AM26.4 °F25.2 °F95 %30.19 in10.0 miCalmClear
7:35 AM25.7 °F25.7 °F100 %30.20 in10.0 miCalmClear
7:55 AM25.7 °F25.7 °F100 %30.20 in10.0 miWest (260°)3.5 mphClear
8:15 AM27.5 °F26.6 °F96 %30.20 in10.0 miWNW (300°)3.5 mphClear
8:35 AM29.5 °F28.4 °F96 %30.19 in10.0 miCalmClear
8:55 AM31.3 °F29.1 °F92 %30.20 in10.0 miWNW (290°)3.5 mphClear
9:15 AM32.2 °F29.5 °F90 %30.21 in10.0 miNW (310°)3.5 mphClear
9:35 AM36.5 °F31.3 °F81 %30.22 in10.0 miCalmClear
9:55 AM38.7 °F32.0 °F77 %30.22 in10.0 miCalmClear
10:15 AM40.6 °F32.4 °F72 %30.23 in10.0 miNNW (340°)3.5 mphClear
10:35 AM43.7 °F34.7 °F71 %30.22 in10.0 miCalmClear
10:55 AM46.4 °F36.7 °F69 %30.22 in10.0 miCalmClear
11:15 AM48.6 °F38.1 °F67 %30.21 in10.0 miCalmClear
11:35 AM51.3 °F40.1 °F66 %30.21 in10.0 miCalmClear
11:55 AM53.8 °F40.8 °F62 %30.20 in10.0 miCalmClear
12:15 PM56.7 °F43.9 °F62 %30.18 in10.0 miSouth (180°)4.6 mphClear
12:35 PM57.6 °F44.8 °F62 %30.18 in10.0 miSSW (210°)4.6 mphClear
1:15 PM59.5 °F45.7 °F60 %30.15 in10.0 miSouth (180°)5.8 mphClear
1:35 PM61.3 °F47.1 °F60 %30.14 in10.0 miSSE (150°)4.6 mphClear
1:55 PM62.8 °F46.8 °F56 %30.13 in10.0 miSSW (200°)8.1 mphClear
2:15 PM63.3 °F45.5 °F52 %30.13 in10.0 miSSW (210°)8.1 mphClear
2:35 PM63.3 °F45.7 °F53 %30.13 in10.0 miSSW (200°)8.1 mphClear
2:55 PM64.6 °F45.3 °F50 %30.11 in10.0 miSSW (200°)9.2 mphClear
3:15 PM65.8 °F46.4 °F49 %30.11 in10.0 miSSW (200°)9.2 mphClear
3:35 PM66.4 °F47.1 °F50 %30.10 in10.0 miSouth (190°)8.1 mphClear
3:55 PM67.1 °F46.6 °F48 %30.10 in10.0 miSSW (210°)8.1 mphClear
4:15 PM66.2 °F44.8 °F46 %30.10 in10.0 miSSW (200°)5.8 mphClear
4:35 PM67.1 °F45.7 °F46 %30.10 in10.0 miSouth (170°)4.6 mphClear
4:55 PM65.7 °F45.7 °F48 %30.11 in10.0 miSouth (170°)4.6 mphClear
5:15 PM64.6 °F46.4 °F52 %30.11 in10.0 miCalmClear
5:35 PM62.8 °F46.6 °F55 %30.11 in10.0 miSSW (200°)3.5 mphClear
5:55 PM58.8 °F45.7 °F62 %30.11 in10.0 miCalmClear
6:15 PM59.2 °F46.0 °F62 %30.11 in10.0 miSSE (160°)3.5 mphClear
6:35 PM55.9 °F45.3 °F68 %30.12 in10.0 miCalmClear
6:55 PM50.9 °F44.2 °F78 %30.13 in10.0 miCalmClear
7:15 PM50.7 °F43.3 °F76 %30.14 in10.0 miCalmClear
7:35 PM48.6 °F43.7 °F83 %30.14 in10.0 miEast (80°)3.5 mphClear
8:15 PM48.2 °F44.1 °F86 %30.14 in10.0 miNE (50°)5.8 mphClear
8:35 PM48.7 °F44.8 °F86 %30.14 in10.0 miNE (50°)5.8 mphClear
8:55 PM48.4 °F45.0 °F88 %30.15 in10.0 miNNE (20°)10.4 mphClear
9:15 PM48.2 °F44.1 °F86 %30.15 in10.0 miNNE (20°)9.2 mphClear
9:35 PM47.5 °F43.2 °F85 %30.16 in10.0 miNNE (20°)10.4 mphClear
9:55 PM46.2 °F42.3 °F86 %30.17 in10.0 miNNE (20°)10.4 mphClear
10:15 PM45.7 °F41.9 °F87 %30.18 in10.0 miNNE (20°)8.1 mphClear
10:35 PM45.0 °F41.2 °F87 %30.18 in10.0 miNorth (10°)11.5 mphClear
10:55 PM44.2 °F40.3 °F86 %30.19 in10.0 miNNE (20°)11.5 mphClear
11:15 PM44.1 °F39.7 °F85 %30.19 in10.0 miNorth (10°)11.5 mphClear
11:35 PM44.6 °F39.6 °F82 %30.20 in10.0 miNNE (20°)11.5 mphClear
11:55 PM44.6 °F39.4 °F82 %30.20 in10.0 miNorth (10°)12.7 mphClear
Hourly data recorded from KJWG, located miles away from Oakwood, Oklahoma







STORIES FROM OUR PARTNERS